SCP
0 0 0 0 0 0 0 0 0 0 0 0 0 0 0 0 0 0 0 0 0 0 0 0 0 0 0 0 0 0 0 0 0 -0 -0 0 -0 0 0 0 0 0 0 0
0 0 0 0 0 0 0 0 0 0 0 0 0 0 0 0 0 0 0 0 0 0 0 0 0 0 0 0 0 0 0 0 0 0 -0 -0 0 0 0 0 0 0 0 0
0 0 0 0 0 0 0 0 0 0 0 0 0 0 0 0 0 0 0 0 0 0 0 0 0 0 0 0 0 0 0 0 0 0 0 0 0 0 0 0 0 0 0 0
0 0 0 0 0 0 0 0 0 0 0 0 0 0 0 0 0 0 0 0 0 0 0 0 0 0 0 0 0 0 0 0 0 0 0 0 0 0 0 0 0 0 0 0
0 0 0 0 0 0 0 0 0 0 0 0 0 0 0 0 0 0 0 0 0 0 0 0 0 0 0 0 0 0 0 0 0 0 0 0 0 0 0 0 0 0 0 0
0 0 0 0 0 0 0 0 0 0 0 0 0 0 0 0 0 0 0 0 0 0 0 0 0 0 0 0 0 0 0 0 0 0 0 0 0 0 0 0 0 0 0 0
0 0 0 0 0 0 0 0 0 0 0 0 0 0 0 0 0 0 0 0 0 0 0 0 0 0 0 0 0 0 0 0 0 0 0 0 0 0 0 0 0 0 0 0
0 0 0 0 0 0 0 0 0 0 0 0 0 0 0 0 0 0 0 0 0 0 0 0 0 0 0 0 0 0 0 0 0 0 0 0 0 0 0 0 0 0 0 0
0 0 0 0 0 0 0 0 0 0 0 0 0 0 0 0 0 0 0 0 0 0 0 0 0 0 0 0 0 0 0 0 0 0 0 0 0 0 0 0 0 0 0 0
0 0 0 0 0 0 0 0 0 0 0 0 0 0 0 0 0 0 0 0 0 0 0 0 0 0 0 0 0 0 0 0 0 0 0 0 0 0 0 0 0 0 0 0
0 0 0 0 0 0 0 0 0 0 0 0 0 0 0 0 0 0 0 0 0 0 0 0 0 0 0 0 0 0 0 0 0 0 0 0 0 0 0 0 0 0 0 0
0 0 0 0 0 0 0 0 0 0 0 0 0 0 0 0 0 0 0 0 0 0 0 0 0 0 0 0 0 0 0 0 0 0 0 0 0 0 0 0 0 0 0 0
0 0 0 0 0 0 0 0 0 0 0 0 0 0 0 0 0 0 0 0 0 0 0 0 0 0 0 0 0 0 0 0 0 0 0 0 0 0 0 0 0 0 0 0
0 0 0 0 0 0 0 0 0 0 0 0 0 0 0 0 0 0 0 0 0 0 0 0 0 0 0 0 0 0 0 0 0 0 0 0 0 0 0 0 0 0 0 0
0 0 0 0 0 0 0 0 0 0 0 0 0 0 0 0 0 0 0 0 0 0 0 0 0 0 0 0 0 0 0 0 0 0 0 0 0 0 0 0 0 0 0 0
0 0 0 0 0 0 0 0 0 0 0 0 0 0 0 0 0 0 0 0 0 0 0 0 0 0 0 0 0 0 0 0 0 0 0 0 0 0 0 0 0 0 0 0
0 0 0 0 0 0 0 0 0 0 0 0 0 0 0 0 0 0 0 0 0 0 0 0 0 0 0 0 0 0 0 0 0 0 0 0 0 0 0 0 0 0 0 0
0 0 0 0 0 0 0 0 0 0 0 0 0 0 0 0 0 0 0 0 0 0 0 0 0 0 0 0 0 0 0 0 0 0 0 0 0 0 0 0 0 0 0 0
0 0 0 0 0 0 0 0 0 0 0 0 0 0 0 0 0 0 0 0 0 0 0 0 0 0 0 0 0 0 0 0 0 0 0 0 0 0 0 0 0 0 0 0
0 0 0 0 0 0 0 0 0 0 0 0 0 0 0 0 0 0 0 0 0 0 0 0 0 0 0 0 0 0 0 0 0 0 0 0 0 0 0 0 0 0 0 0
0 0 0 0 0 0 0 0 0 0 0 0 0 0 0 0 0 0 0 0 0 0 0 0 0 0 0 0 0 0 0 0 0 0 0 0 0 0 0 0 0 0 0 0
0 0 0 0 0 0 0 0 0 0 0 0 0 0 0 0 0 0 0 0 0 0 0 0 0 0 0 0 0 0 0 0 0 0 0 0 0 0 0 0 0 0 0 0
0 0 0 0 0 0 0 0 0 0 0 0 0 0 0 0 0 0 0 0 0 0 0 0 0 0 0 0 0 0 0 0 0 0 0 0 0 0 0 0 0 0 0 -0
0 0 0 0 0 0 0 0 0 0 0 0 0 0 0 0 0 0 0 0 0 0 0 0 0 0 0 0 0 0 0 0 0 0 0 0 0 0 0 0 0 0 0 -0
0 0 0 0 0 0 0 0 0 0 0 0 0 0 0 0 0 0 0 0 0 0 0 0 0 0 0 0 0 0 0 0 0 0 0 0 0 0 0 0 0 -0 -0 -0
0 0 0 0 0 0 0 0 0 0 0 0 0 0 0 0 0 0 0 0 0 0 0 0 0 0 0 0 0 0 0 0 0 0 0 0 0 0 0 0 0 -0 -0 -0
Wind_Speed_500mb
5 7 9 18 14 6 4 7 14 12 11 7 18 29 43 39 46 48 58 72 72 67 53 49 43 34 27 24 24 25 30 37 44 49 59 65 67 68 70 74 76 78 81 86
8 9 9 5 9 6 7 8 16 19 5 12 19 24 36 18 30 69 71 76 85 70 62 58 49 39 33 29 24 25 31 40 45 51 58 63 68 73 75 78 82 85 89 90
12 5 7 7 6 6 9 11 11 16 13 10 16 13 23 8 39 39 60 71 84 86 72 62 55 43 35 29 25 27 32 40 46 52 57 61 67 73 80 82 84 87 92 98
11 2 10 7 10 15 11 9 6 9 10 7 8 18 9 11 24 20 44 68 81 88 75 66 59 49 40 30 25 27 31 41 48 53 58 62 68 75 78 84 87 89 92 97
14 15 11 11 15 15 15 4 3 4 9 8 10 9 11 4 18 35 31 70 78 88 83 69 61 50 38 27 24 27 33 42 48 52 57 61 65 71 80 86 91 93 97 98
12 1 11 14 4 8 8 4 5 8 4 4 10 15 9 11 16 12 13 56 73 86 81 68 58 48 33 24 23 26 35 44 49 54 55 61 67 73 81 86 93 96 99 102
2 9 2 6 5 4 7 9 7 10 5 14 7 8 27 22 23 16 18 43 68 84 79 69 60 46 33 25 23 27 37 44 49 54 58 62 67 73 80 87 91 97 100 103
9 19 17 10 12 13 11 15 11 13 7 16 2 18 13 11 21 32 39 43 56 79 78 70 59 45 33 24 23 28 39 45 50 56 61 64 67 74 81 85 88 94 97 103
13 14 2 4 2 4 9 10 1 5 6 6 10 16 16 9 17 10 19 43 60 82 81 72 57 44 30 25 23 30 40 46 52 59 63 67 71 75 81 86 89 92 96 102
12 10 3 4 3 6 7 11 8 5 4 12 13 22 31 17 22 10 15 40 58 78 77 67 55 40 29 25 26 33 41 48 55 60 65 70 74 79 85 89 90 91 95 100
10 7 6 7 17 21 4 7 3 6 10 12 4 25 15 16 22 22 29 51 63 83 83 69 52 38 30 27 30 36 44 55 58 63 67 72 78 82 87 90 90 90 95 100
14 10 11 29 0 3 6 21 27 12 13 7 7 42 10 17 18 25 38 59 69 83 79 63 49 39 33 29 31 38 50 53 58 64 70 74 81 85 87 91 91 91 96 99
18 9 4 10 4 5 13 15 13 3 3 38 17 39 4 6 1 34 36 54 67 81 75 61 52 43 34 28 31 40 46 52 59 66 72 77 80 86 91 93 92 93 97 99
43 15 18 34 19 12 12 23 24 32 18 45 55 66 78 53 47 18 39 56 66 76 81 66 58 44 31 28 32 40 45 52 60 66 72 78 84 88 92 92 94 96 96 97
20 34 17 49 47 11 13 33 27 37 57 35 78 61 67 60 61 34 56 63 60 70 83 76 55 41 32 28 33 38 44 52 59 66 74 81 85 87 91 92 93 96 96 94
8 23 21 39 21 12 22 62 38 50 57 48 65 78 76 78 84 64 47 50 59 74 81 65 47 38 28 28 32 36 44 51 60 68 74 79 84 86 89 92 94 96 96 93
18 14 10 45 8 11 27 52 50 55 64 44 56 80 74 56 36 24 30 49 65 74 82 63 48 34 26 25 28 37 44 53 61 67 73 79 81 84 88 90 92 94 95 96
16 11 9 13 7 25 45 12 19 45 54 43 52 64 50 45 17 32 50 60 63 69 73 56 44 32 24 20 26 34 45 54 61 66 70 75 80 83 86 88 89 93 95 93
31 17 17 20 28 43 53 23 17 16 62 31 51 55 52 16 3 21 43 49 57 68 65 52 39 28 19 18 25 35 44 52 59 65 70 74 77 81 84 84 87 91 93 93
29 30 32 23 22 40 63 6 20 15 33 49 41 45 32 24 6 28 46 49 53 60 56 49 36 23 16 17 26 35 43 50 57 63 68 71 72 75 79 80 86 88 88 88
10 14 44 45 41 17 43 19 31 11 42 7 37 36 31 22 25 15 49 60 60 60 54 44 31 21 14 17 24 33 42 47 53 57 63 66 68 70 74 79 79 86 86 88
28 22 15 20 25 39 28 13 34 38 8 20 32 51 53 46 40 38 69 75 71 63 53 41 30 19 13 16 25 33 42 49 52 55 58 61 63 66 70 75 80 82 82 85
19 36 18 21 17 5 54 57 95 56 35 35 55 57 64 61 51 59 81 83 75 63 53 41 28 18 12 16 24 34 42 48 50 52 55 59 62 65 68 74 77 81 80 80
19 15 20 9 46 45 47 74 56 75 59 47 53 61 67 68 62 73 81 80 72 66 55 42 31 20 14 16 23 34 42 45 46 48 53 59 63 66 66 71 69 74 74 79
31 30 40 33 45 19 58 86 80 67 70 47 57 67 67 68 74 78 80 75 69 63 53 42 31 21 15 15 20 30 37 40 41 45 51 55 59 63 66 63 71 66 62 60
21 31 28 31 58 41 68 70 88 75 83 81 77 68 72 70 67 79 71 69 69 64 54 42 32 22 16 16 19 26 31 35 39 43 48 53 57 61 63 68 67 64 61 55
Wind_Direction_500mb
33 57 245 233 207 196 208 225 247 252 232 244 238 253 270 237 219 226 221 217 212 212 211 211 213 220 241 266 295 317 332 336 338 340 338 336 337 336 334 332 333 333 335 334
24 235 222 161 146 185 219 272 270 283 283 188 266 252 272 205 224 222 219 216 217 212 206 206 208 220 237 261 292 315 329 335 337 337 338 337 334 333 332 332 333 335 335 335
175 232 120 156 178 217 221 197 244 240 332 276 314 260 243 247 244 242 230 229 227 218 207 206 209 220 239 262 290 312 325 331 333 335 333 331 327 326 328 330 331 331 332 332
229 227 197 198 243 158 275 206 261 289 345 256 31 291 252 247 265 227 227 223 225 220 212 212 211 219 234 256 285 305 319 329 332 333 331 331 328 327 326 326 327 327 328 328
241 173 193 206 219 159 224 102 226 229 251 328 215 250 255 52 271 260 219 222 220 222 212 209 210 219 233 252 279 299 318 328 329 331 330 328 325 323 323 324 324 326 324 326
246 213 178 215 145 165 111 37 50 53 54 312 232 196 233 202 217 256 234 222 217 219 209 209 211 218 231 255 281 300 318 326 328 328 328 327 324 323 323 325 323 324 323 324
256 217 231 181 134 86 97 70 326 327 350 235 162 235 254 252 250 235 244 217 223 214 203 204 207 216 231 256 279 302 317 324 326 328 327 324 322 323 323 324 324 323 322 323
209 281 176 183 203 181 171 167 165 246 236 284 53 244 253 240 279 275 270 256 224 209 205 206 211 220 235 260 284 304 316 322 326 324 323 323 324 323 322 322 323 321 321 321
174 266 138 186 128 138 172 179 165 74 88 350 247 283 286 280 282 278 230 212 213 210 204 206 210 222 239 261 283 304 314 319 323 322 322 322 322 323 322 322 323 322 321 321
204 284 174 127 126 31 153 156 78 16 259 264 263 278 252 249 262 191 226 213 212 207 205 206 214 223 242 262 281 303 311 319 321 320 321 323 324 325 323 324 325 322 320 320
135 155 208 129 207 176 128 216 125 153 168 203 289 271 193 211 219 201 215 220 214 207 205 208 214 225 242 260 286 303 314 319 320 322 324 324 325 325 325 325 324 323 322 321
201 158 203 216 305 347 243 201 178 195 228 248 154 261 163 196 219 185 214 221 224 217 211 212 218 228 243 265 290 309 317 320 322 322 324 325 326 326 326 326 327 326 323 321
175 222 287 315 41 350 223 212 221 87 130 237 211 261 130 347 145 211 221 228 229 223 213 215 218 228 241 269 296 308 314 319 320 324 325 327 328 328 328 328 328 326 325 322
165 192 180 233 220 128 185 217 208 212 233 250 242 260 269 268 267 223 232 242 235 229 214 212 219 225 241 270 292 306 315 320 323 325 327 329 330 329 328 329 329 328 326 323
180 237 197 245 252 204 218 238 188 209 230 234 262 261 266 271 271 271 259 241 219 211 208 211 210 217 241 271 295 308 316 322 326 328 329 331 330 329 330 331 330 330 328 325
194 241 224 254 249 198 265 258 236 233 247 251 256 266 267 268 280 279 260 221 202 204 205 204 209 224 248 277 296 310 319 324 327 329 330 330 330 331 332 333 333 331 329 327
170 190 154 250 208 89 271 258 241 248 245 237 249 250 262 274 257 238 232 224 214 207 207 202 211 223 246 276 298 313 322 326 328 328 329 330 333 333 334 335 334 333 332 332
187 171 159 244 94 231 258 162 210 230 250 229 242 252 253 256 274 262 253 241 220 209 204 200 206 219 241 273 304 318 323 326 328 327 329 330 333 335 335 336 336 336 337 332
203 180 221 225 227 258 287 234 176 176 271 209 226 247 254 233 201 251 228 227 227 212 196 198 202 213 237 279 309 319 323 328 328 329 331 333 336 336 336 338 341 341 336 336
211 228 224 217 235 237 251 127 142 127 267 264 207 233 234 135 214 255 213 205 200 188 189 191 193 207 244 294 315 323 327 330 331 332 334 335 337 339 338 343 346 340 342 339
176 208 219 228 239 245 260 159 150 159 254 131 193 210 158 189 209 196 188 181 183 183 184 187 191 211 248 294 315 324 327 333 333 333 335 338 341 340 344 348 347 346 344 342
188 181 207 229 242 248 143 105 192 227 187 205 207 198 189 194 184 187 180 177 179 182 184 190 197 209 254 302 317 325 331 336 336 338 340 342 342 347 350 351 352 350 349 346
207 207 204 207 213 205 184 216 217 230 216 201 199 201 205 185 181 181 180 179 181 186 187 188 194 217 257 297 318 326 333 336 340 341 343 346 350 354 355 357 357 354 354 349
229 176 222 191 244 238 222 226 236 216 226 222 214 206 198 190 182 179 181 183 183 185 186 187 196 212 246 290 316 327 333 338 340 342 348 352 353 356 358 0 5 0 357 352
204 155 213 242 261 271 253 233 226 223 222 222 214 207 198 192 183 183 184 187 189 187 186 191 196 209 244 279 312 324 332 336 341 349 353 356 356 358 358 7 7 6 2 351
190 198 194 221 231 218 242 235 227 215 217 219 211 201 197 192 192 192 190 194 192 187 189 194 199 207 239 281 310 326 336 337 342 350 357 358 359 -0 359 1 5 18 16 3
Wind_Speed_850mb
5 7 9 18 14 6 4 7 14 12 11 7 18 29 43 39 46 48 58 72 72 67 53 49 43 34 27 24 24 25 30 37 44 49 59 65 67 68 70 74 76 78 81 86
8 9 9 5 9 6 7 8 16 19 5 12 19 24 36 18 30 69 71 76 85 70 62 58 49 39 33 29 24 25 31 40 45 51 58 63 68 73 75 78 82 85 89 90
12 5 7 7 6 6 9 11 11 16 13 10 16 13 23 8 39 39 60 71 84 86 72 62 55 43 35 29 25 27 32 40 46 52 57 61 67 73 80 82 84 87 92 98
11 2 10 7 10 15 11 9 6 9 10 7 8 18 9 11 24 20 44 68 81 88 75 66 59 49 40 30 25 27 31 41 48 53 58 62 68 75 78 84 87 89 92 97
14 15 11 11 15 15 15 4 3 4 9 8 10 9 11 4 18 35 31 70 78 88 83 69 61 50 38 27 24 27 33 42 48 52 57 61 65 71 80 86 91 93 97 98
12 1 11 14 4 8 8 4 5 8 4 4 10 15 9 11 16 12 13 56 73 86 81 68 58 48 33 24 23 26 35 44 49 54 55 61 67 73 81 86 93 96 99 102
2 9 2 6 5 4 7 9 7 10 5 14 7 8 27 22 23 16 18 43 68 84 79 69 60 46 33 25 23 27 37 44 49 54 58 62 67 73 80 87 91 97 100 103
9 19 17 10 12 13 11 15 11 13 7 16 2 18 13 11 21 32 39 43 56 79 78 70 59 45 33 24 23 28 39 45 50 56 61 64 67 74 81 85 88 94 97 103
13 14 2 4 2 4 9 10 1 5 6 6 10 16 16 9 17 10 19 43 60 82 81 72 57 44 30 25 23 30 40 46 52 59 63 67 71 75 81 86 89 92 96 102
12 10 3 4 3 6 7 11 8 5 4 12 13 22 31 17 22 10 15 40 58 78 77 67 55 40 29 25 26 33 41 48 55 60 65 70 74 79 85 89 90 91 95 100
10 7 6 7 17 21 4 7 3 6 10 12 4 25 15 16 22 22 29 51 63 83 83 69 52 38 30 27 30 36 44 55 58 63 67 72 78 82 87 90 90 90 95 100
14 10 11 29 0 3 6 21 27 12 13 7 7 42 10 17 18 25 38 59 69 83 79 63 49 39 33 29 31 38 50 53 58 64 70 74 81 85 87 91 91 91 96 99
18 9 4 10 4 5 13 15 13 3 3 38 17 39 4 6 1 34 36 54 67 81 75 61 52 43 34 28 31 40 46 52 59 66 72 77 80 86 91 93 92 93 97 99
43 15 18 34 19 12 12 23 24 32 18 45 55 66 78 53 47 18 39 56 66 76 81 66 58 44 31 28 32 40 45 52 60 66 72 78 84 88 92 92 94 96 96 97
20 34 17 49 47 11 13 33 27 37 57 35 78 61 67 60 61 34 56 63 60 70 83 76 55 41 32 28 33 38 44 52 59 66 74 81 85 87 91 92 93 96 96 94
8 23 21 39 21 12 22 62 38 50 57 48 65 78 76 78 84 64 47 50 59 74 81 65 47 38 28 28 32 36 44 51 60 68 74 79 84 86 89 92 94 96 96 93
18 14 10 45 8 11 27 52 50 55 64 44 56 80 74 56 36 24 30 49 65 74 82 63 48 34 26 25 28 37 44 53 61 67 73 79 81 84 88 90 92 94 95 96
16 11 9 13 7 25 45 12 19 45 54 43 52 64 50 45 17 32 50 60 63 69 73 56 44 32 24 20 26 34 45 54 61 66 70 75 80 83 86 88 89 93 95 93
31 17 17 20 28 43 53 23 17 16 62 31 51 55 52 16 3 21 43 49 57 68 65 52 39 28 19 18 25 35 44 52 59 65 70 74 77 81 84 84 87 91 93 93
29 30 32 23 22 40 63 6 20 15 33 49 41 45 32 24 6 28 46 49 53 60 56 49 36 23 16 17 26 35 43 50 57 63 68 71 72 75 79 80 86 88 88 88
10 14 44 45 41 17 43 19 31 11 42 7 37 36 31 22 25 15 49 60 60 60 54 44 31 21 14 17 24 33 42 47 53 57 63 66 68 70 74 79 79 86 86 88
28 22 15 20 25 39 28 13 34 38 8 20 32 51 53 46 40 38 69 75 71 63 53 41 30 19 13 16 25 33 42 49 52 55 58 61 63 66 70 75 80 82 82 85
19 36 18 21 17 5 54 57 95 56 35 35 55 57 64 61 51 59 81 83 75 63 53 41 28 18 12 16 24 34 42 48 50 52 55 59 62 65 68 74 77 81 80 80
19 15 20 9 46 45 47 74 56 75 59 47 53 61 67 68 62 73 81 80 72 66 55 42 31 20 14 16 23 34 42 45 46 48 53 59 63 66 66 71 69 74 74 79
31 30 40 33 45 19 58 86 80 67 70 47 57 67 67 68 74 78 80 75 69 63 53 42 31 21 15 15 20 30 37 40 41 45 51 55 59 63 66 63 71 66 62 60
21 31 28 31 58 41 68 70 88 75 83 81 77 68 72 70 67 79 71 69 69 64 54 42 32 22 16 16 19 26 31 35 39 43 48 53 57 61 63 68 67 64 61 55
Wind_Direction_850mb
33 57 245 233 207 196 208 225 247 252 232 244 238 253 270 237 219 226 221 217 212 212 211 211 213 220 241 266 295 317 332 336 338 340 338 336 337 336 334 332 333 333 335 334
24 235 222 161 146 185 219 272 270 283 283 188 266 252 272 205 224 222 219 216 217 212 206 206 208 220 237 261 292 315 329 335 337 337 338 337 334 333 332 332 333 335 335 335
175 232 120 156 178 217 221 197 244 240 332 276 314 260 243 247 244 242 230 229 227 218 207 206 209 220 239 262 290 312 325 331 333 335 333 331 327 326 328 330 331 331 332 332
229 227 197 198 243 158 275 206 261 289 345 256 31 291 252 247 265 227 227 223 225 220 212 212 211 219 234 256 285 305 319 329 332 333 331 331 328 327 326 326 327 327 328 328
241 173 193 206 219 159 224 102 226 229 251 328 215 250 255 52 271 260 219 222 220 222 212 209 210 219 233 252 279 299 318 328 329 331 330 328 325 323 323 324 324 326 324 326
246 213 178 215 145 165 111 37 50 53 54 312 232 196 233 202 217 256 234 222 217 219 209 209 211 218 231 255 281 300 318 326 328 328 328 327 324 323 323 325 323 324 323 324
256 217 231 181 134 86 97 70 326 327 350 235 162 235 254 252 250 235 244 217 223 214 203 204 207 216 231 256 279 302 317 324 326 328 327 324 322 323 323 324 324 323 322 323
209 281 176 183 203 181 171 167 165 246 236 284 53 244 253 240 279 275 270 256 224 209 205 206 211 220 235 260 284 304 316 322 326 324 323 323 324 323 322 322 323 321 321 321
174 266 138 186 128 138 172 179 165 74 88 350 247 283 286 280 282 278 230 212 213 210 204 206 210 222 239 261 283 304 314 319 323 322 322 322 322 323 322 322 323 322 321 321
204 284 174 127 126 31 153 156 78 16 259 264 263 278 252 249 262 191 226 213 212 207 205 206 214 223 242 262 281 303 311 319 321 320 321 323 324 325 323 324 325 322 320 320
135 155 208 129 207 176 128 216 125 153 168 203 289 271 193 211 219 201 215 220 214 207 205 208 214 225 242 260 286 303 314 319 320 322 324 324 325 325 325 325 324 323 322 321
201 158 203 216 305 347 243 201 178 195 228 248 154 261 163 196 219 185 214 221 224 217 211 212 218 228 243 265 290 309 317 320 322 322 324 325 326 326 326 326 327 326 323 321
175 222 287 315 41 350 223 212 221 87 130 237 211 261 130 347 145 211 221 228 229 223 213 215 218 228 241 269 296 308 314 319 320 324 325 327 328 328 328 328 328 326 325 322
165 192 180 233 220 128 185 217 208 212 233 250 242 260 269 268 267 223 232 242 235 229 214 212 219 225 241 270 292 306 315 320 323 325 327 329 330 329 328 329 329 328 326 323
180 237 197 245 252 204 218 238 188 209 230 234 262 261 266 271 271 271 259 241 219 211 208 211 210 217 241 271 295 308 316 322 326 328 329 331 330 329 330 331 330 330 328 325
194 241 224 254 249 198 265 258 236 233 247 251 256 266 267 268 280 279 260 221 202 204 205 204 209 224 248 277 296 310 319 324 327 329 330 330 330 331 332 333 333 331 329 327
170 190 154 250 208 89 271 258 241 248 245 237 249 250 262 274 257 238 232 224 214 207 207 202 211 223 246 276 298 313 322 326 328 328 329 330 333 333 334 335 334 333 332 332
187 171 159 244 94 231 258 162 210 230 250 229 242 252 253 256 274 262 253 241 220 209 204 200 206 219 241 273 304 318 323 326 328 327 329 330 333 335 335 336 336 336 337 332
203 180 221 225 227 258 287 234 176 176 271 209 226 247 254 233 201 251 228 227 227 212 196 198 202 213 237 279 309 319 323 328 328 329 331 333 336 336 336 338 341 341 336 336
211 228 224 217 235 237 251 127 142 127 267 264 207 233 234 135 214 255 213 205 200 188 189 191 193 207 244 294 315 323 327 330 331 332 334 335 337 339 338 343 346 340 342 339
176 208 219 228 239 245 260 159 150 159 254 131 193 210 158 189 209 196 188 181 183 183 184 187 191 211 248 294 315 324 327 333 333 333 335 338 341 340 344 348 347 346 344 342
188 181 207 229 242 248 143 105 192 227 187 205 207 198 189 194 184 187 180 177 179 182 184 190 197 209 254 302 317 325 331 336 336 338 340 342 342 347 350 351 352 350 349 346
207 207 204 207 213 205 184 216 217 230 216 201 199 201 205 185 181 181 180 179 181 186 187 188 194 217 257 297 318 326 333 336 340 341 343 346 350 354 355 357 357 354 354 349
229 176 222 191 244 238 222 226 236 216 226 222 214 206 198 190 182 179 181 183 183 185 186 187 196 212 246 290 316 327 333 338 340 342 348 352 353 356 358 0 5 0 357 352
204 155 213 242 261 271 253 233 226 223 222 222 214 207 198 192 183 183 184 187 189 187 186 191 196 209 244 279 312 324 332 336 341 349 353 356 356 358 358 7 7 6 2 351
190 198 194 221 231 218 242 235 227 215 217 219 211 201 197 192 192 192 190 194 192 187 189 194 199 207 239 281 310 326 336 337 342 350 357 358 359 -0 359 1 5 18 16 3